Language: 


Des rapports , des résumés tant et plus, au choix de chacun....


Données Historiques de Météogheer
Journalier Rapport pour Janvier 17, 2018 Unitée:  Métrique    Impériale   Les deux
Suivant Jour »
Journalier Hebdomadaire Mensuel Annuel Sur mesure
  Max: Min: Moyenne:
Température: 8.0 °C 2.4 °C 5 °C
Point de rosée: 4.0 °C -1.0 °C 1 °C
Humidité: 94% 55% 75%
Vent: 35.6km/h 0.0km/h 14.9km/h
Rafales: 38.5km/h - -
Vent- - West
Pression: 1009.0 hPa 995.1 hPa -
Pluie: 0.0 mm    
Historical Graphs
 
 
Données tabulaires pour Janvier 17, 2018
Heure Température Point de rosée Pression Vent Vent Rafales Humidité Pluie Taux (Horaire) Conditions
00:01 4.2 °C 3.0 °C 995.1 hPa West 22.7 km/h 24.8 km/h 94% 0.0 mm
00:12 4.2 °C 3.0 °C 995.1 hPa West 27.7 km/h 27.7 km/h 94% 0.0 mm
00:17 4.4 °C 2.0 °C 995.1 hPa WSW 19.5 km/h 27.7 km/h 85% 0.0 mm
00:31 4.4 °C 2.0 °C 995.1 hPa West 24.5 km/h 24.5 km/h 85% 0.0 mm
00:37 4.4 °C 2.0 °C 995.1 hPa WNW 20.6 km/h 30.2 km/h 85% 0.0 mm
00:59 4.4 °C 2.0 °C 995.1 hPa West 23.8 km/h 25.3 km/h 85% 0.0 mm
01:19 4.4 °C 2.0 °C 996.2 hPa West 10.1 km/h 25.6 km/h 85% 0.0 mm
01:28 4.4 °C 2.0 °C 996.2 hPa West 15.4 km/h 32.0 km/h 85% 0.0 mm
01:46 4.4 °C 2.0 °C 995.1 hPa West 13.0 km/h 24.5 km/h 85% 0.0 mm
01:52 4.4 °C 2.0 °C 995.1 hPa West 8.7 km/h 24.5 km/h 85% 0.0 mm
01:59 4.4 °C 2.0 °C 995.1 hPa WSW 12.6 km/h 22.4 km/h 85% 0.0 mm
02:04 4.4 °C 2.0 °C 995.1 hPa West 15.8 km/h 22.4 km/h 85% 0.0 mm
02:12 4.4 °C 1.0 °C 995.1 hPa WSW 10.5 km/h 23.0 km/h 75% 0.0 mm
02:25 4.4 °C 1.0 °C 995.1 hPa West 14.0 km/h 18.3 km/h 75% 0.0 mm
02:45 4.4 °C 1.0 °C 995.1 hPa West 17.7 km/h 27.7 km/h 75% 0.0 mm
02:53 4.4 °C 1.0 °C 995.1 hPa WSW 28.0 km/h 28.0 km/h 75% 0.0 mm
02:58 4.4 °C 1.0 °C 996.2 hPa WNW 23.0 km/h 28.0 km/h 75% 0.0 mm
03:28 4.5 °C 0.0 °C 996.2 hPa West 19.8 km/h 31.7 km/h 71% 0.0 mm
03:35 4.4 °C 0.0 °C 996.2 hPa WSW 16.6 km/h 31.7 km/h 71% 0.0 mm
03:42 4.3 °C 0.0 °C 996.8 hPa WNW 12.6 km/h 26.2 km/h 71% 0.0 mm
03:50 4.0 °C -1.0 °C 996.8 hPa West 26.2 km/h 26.2 km/h 71% 0.0 mm
03:55 3.9 °C 0.0 °C 996.8 hPa WSW 13.7 km/h 26.2 km/h 72% 0.0 mm
04:04 3.7 °C -1.0 °C 996.8 hPa SW 35.2 km/h 35.2 km/h 72% 0.0 mm
04:12 3.6 °C -1.0 °C 996.8 hPa NW 13.7 km/h 35.2 km/h 72% 0.0 mm
04:20 3.5 °C -1.0 °C 996.8 hPa West 24.8 km/h 27.0 km/h 73% 0.0 mm
04:27 3.4 °C -1.0 °C 996.8 hPa WSW 21.9 km/h 25.6 km/h 73% 0.0 mm
04:33 3.4 °C -1.0 °C 996.8 hPa WSW 16.9 km/h 24.8 km/h 73% 0.0 mm
04:45 3.4 °C -1.0 °C 996.8 hPa West 16.6 km/h 23.0 km/h 73% 0.0 mm
04:56 3.5 °C -1.0 °C 996.8 hPa WSW 19.1 km/h 26.7 km/h 73% 0.0 mm
05:14 3.6 °C -1.0 °C 996.8 hPa WNW 6.1 km/h 22.7 km/h 72% 0.0 mm
05:42 3.3 °C -1.0 °C 997.9 hPa WNW 10.1 km/h 27.7 km/h 71% 0.0 mm
05:48 3.3 °C -1.0 °C 997.9 hPa West 11.9 km/h 27.7 km/h 71% 0.0 mm
05:56 3.3 °C -1.0 °C 998.9 hPa West 15.8 km/h 24.8 km/h 71% 0.0 mm
06:12 3.3 °C -1.0 °C 998.9 hPa WNW 20.9 km/h 32.8 km/h 71% 0.0 mm
06:18 3.3 °C -1.0 °C 998.9 hPa SSW 28.0 km/h 28.0 km/h 72% 0.0 mm
06:36 3.3 °C -1.0 °C 998.9 hPa West 27.4 km/h 27.4 km/h 72% 0.0 mm
06:41 3.3 °C -1.0 °C 998.9 hPa WNW 4.7 km/h 27.4 km/h 72% 0.0 mm
06:47 3.3 °C -1.0 °C 998.9 hPa WNW 6.9 km/h 28.0 km/h 72% 0.0 mm
06:57 3.3 °C -1.0 °C 997.9 hPa WSW 9.7 km/h 23.0 km/h 72% 0.0 mm
07:04 3.3 °C -1.0 °C 997.9 hPa South 13.7 km/h 20.1 km/h 72% 0.0 mm
07:23 3.3 °C -1.0 °C 999.9 hPa SW 20.6 km/h 27.7 km/h 72% 0.0 mm
07:35 3.0 °C -1.0 °C 999.9 hPa WNW 14.0 km/h 31.4 km/h 74% 0.0 mm
07:44 3.2 °C 0.0 °C 1000.9 hPa West 21.2 km/h 24.5 km/h 75% 0.0 mm
07:51 3.3 °C 0.0 °C 1000.9 hPa West 26.2 km/h 26.2 km/h 75% 0.0 mm
08:12 3.3 °C -1.0 °C 1000.9 hPa West 13.0 km/h 27.4 km/h 73% 0.0 mm
08:30 3.2 °C -1.0 °C 1001.9 hPa West 20.9 km/h 20.9 km/h 73% 0.0 mm
08:35 3.1 °C -1.0 °C 1001.9 hPa West 18.0 km/h 22.4 km/h 73% 0.0 mm
08:47 3.0 °C -1.0 °C 1001.9 hPa West 16.9 km/h 24.5 km/h 73% 0.0 mm
08:56 3.1 °C -1.0 °C 1001.9 hPa West 8.7 km/h 27.7 km/h 73% 0.0 mm
09:09 3.3 °C -1.0 °C 1001.9 hPa WSW 13.7 km/h 31.7 km/h 74% 0.0 mm
09:17 3.3 °C -1.0 °C 1001.9 hPa West 17.2 km/h 25.3 km/h 74% 0.0 mm
09:23 3.3 °C -1.0 °C 1001.9 hPa West 16.6 km/h 25.6 km/h 74% 0.0 mm
09:43 3.6 °C 0.0 °C 1002.9 hPa WSW 21.2 km/h 27.0 km/h 75% 0.0 mm
09:50 3.6 °C 0.0 °C 1002.9 hPa SW 9.3 km/h 23.8 km/h 75% 0.0 mm
09:56 3.8 °C 0.0 °C 1002.9 hPa WSW 17.7 km/h 24.5 km/h 75% 0.0 mm
10:05 4.0 °C 0.0 °C 1002.9 hPa West 13.7 km/h 23.0 km/h 74% 0.0 mm
10:11 4.0 °C 0.0 °C 1003.9 hPa WSW 26.2 km/h 26.2 km/h 74% 0.0 mm
10:17 4.2 °C 0.0 °C 1003.9 hPa SW 14.8 km/h 26.2 km/h 73% 0.0 mm
10:32 4.6 °C 0.0 °C 1005.0 hPa WSW 19.1 km/h 33.5 km/h 71% 0.0 mm
10:48 5.2 °C 0.0 °C 1005.0 hPa WSW 12.2 km/h 23.3 km/h 70% 0.0 mm
10:56 5.5 °C 1.0 °C 1005.0 hPa WNW 20.9 km/h 25.9 km/h 70% 0.0 mm
11:02 5.7 °C 1.0 °C 1005.0 hPa West 24.5 km/h 24.8 km/h 69% 0.0 mm
11:17 6.2 °C 1.0 °C 1003.9 hPa West 12.6 km/h 24.8 km/h 67% 0.0 mm
11:22 6.4 °C 1.0 °C 1003.9 hPa West 14.0 km/h 17.7 km/h 67% 0.0 mm
11:29 6.5 °C 1.0 °C 1005.0 hPa West 16.3 km/h 27.4 km/h 66% 0.0 mm
11:36 6.5 °C 1.0 °C 1005.0 hPa WSW 10.8 km/h 27.4 km/h 66% 0.0 mm
11:41 6.7 °C 1.0 °C 1005.0 hPa West 16.9 km/h 30.6 km/h 65% 0.0 mm
11:47 6.8 °C 1.0 °C 1005.0 hPa WSW 15.4 km/h 30.6 km/h 65% 0.0 mm
11:54 6.8 °C 1.0 °C 1005.0 hPa NW 20.1 km/h 28.0 km/h 64% 0.0 mm
12:00 7.0 °C 1.0 °C 1006.0 hPa NNW 23.8 km/h 29.9 km/h 63% 0.0 mm
12:11 7.2 °C 0.0 °C 1006.0 hPa WNW 12.6 km/h 33.5 km/h 61% 0.0 mm
12:22 7.3 °C 0.0 °C 1006.0 hPa NW 30.2 km/h 37.5 km/h 59% 0.0 mm
12:35 7.4 °C 0.0 °C 1006.0 hPa West 18.3 km/h 30.6 km/h 60% 0.0 mm
12:46 7.5 °C 1.0 °C 1006.0 hPa West 13.0 km/h 31.7 km/h 61% 0.0 mm
12:53 7.6 °C 1.0 °C 1006.0 hPa West 12.2 km/h 31.7 km/h 61% 0.0 mm
12:58 7.7 °C 1.0 °C 1007.0 hPa NW 27.7 km/h 27.7 km/h 60% 0.0 mm
13:05 7.5 °C 0.0 °C 1007.0 hPa West 18.0 km/h 28.5 km/h 59% 0.0 mm
13:15 7.4 °C 0.0 °C 1007.0 hPa North 16.3 km/h 36.4 km/h 60% 0.0 mm
13:29 7.3 °C 0.0 °C 1007.0 hPa SW 21.2 km/h 38.5 km/h 59% 0.0 mm
13:38 7.4 °C 0.0 °C 1007.0 hPa South 21.2 km/h 37.5 km/h 60% 0.0 mm
13:52 7.5 °C 0.0 °C 1007.0 hPa West 21.2 km/h 37.8 km/h 59% 0.0 mm
14:05 7.8 °C 0.0 °C 1007.0 hPa NW 21.6 km/h 35.2 km/h 57% 0.0 mm
14:25 7.9 °C 0.0 °C 1006.0 hPa West 29.9 km/h 35.6 km/h 56% 0.0 mm
14:32 7.9 °C 0.0 °C 1007.0 hPa WSW 35.6 km/h 35.6 km/h 56% 0.0 mm
14:38 8.0 °C 0.0 °C 1007.0 hPa West 17.2 km/h 35.6 km/h 56% 0.0 mm
14:44 8.0 °C 0.0 °C 1007.0 hPa West 27.4 km/h 31.7 km/h 57% 0.0 mm
14:52 7.9 °C -1.0 °C 1007.0 hPa WSW 25.3 km/h 36.4 km/h 55% 0.0 mm
15:01 7.6 °C -1.0 °C 1007.0 hPa WSW 16.3 km/h 32.0 km/h 56% 0.0 mm
15:06 7.6 °C 0.0 °C 1007.0 hPa WSW 20.6 km/h 32.0 km/h 58% 0.0 mm
15:14 7.9 °C 1.0 °C 1007.0 hPa WNW 15.8 km/h 25.3 km/h 59% 0.0 mm
15:20 7.7 °C 0.0 °C 1007.0 hPa West 27.7 km/h 27.7 km/h 58% 0.0 mm
15:26 7.5 °C 1.0 °C 1007.0 hPa West 27.7 km/h 31.7 km/h 60% 0.0 mm
16:05 7.2 °C 1.0 °C 1008.0 hPa West 11.6 km/h 21.2 km/h 64% 0.0 mm
16:11 6.9 °C 1.0 °C 1008.0 hPa WSW 15.1 km/h 17.7 km/h 66% 0.0 mm
16:18 6.7 °C 1.0 °C 1008.0 hPa West 13.7 km/h 23.8 km/h 68% 0.0 mm
16:38 6.3 °C 1.0 °C 1008.0 hPa WSW 20.6 km/h 22.7 km/h 70% 0.0 mm
17:04 5.6 °C 1.0 °C 1009.0 hPa WSW 13.7 km/h 23.3 km/h 72% 0.0 mm
17:12 5.6 °C 1.0 °C 1009.0 hPa WSW 15.4 km/h 20.1 km/h 73% 0.0 mm
17:20 5.4 °C 1.0 °C 1009.0 hPa West 15.4 km/h 19.8 km/h 73% 0.0 mm
17:30 5.4 °C 1.0 °C 1009.0 hPa West 10.5 km/h 21.2 km/h 74% 0.0 mm
17:35 5.5 °C 2.0 °C 1009.0 hPa West 16.3 km/h 23.8 km/h 75% 0.0 mm
17:40 5.6 °C 2.0 °C 1009.0 hPa WSW 18.0 km/h 23.8 km/h 75% 0.0 mm
17:50 5.7 °C 2.0 °C 1009.0 hPa West 15.4 km/h 24.8 km/h 74% 0.0 mm
17:59 5.6 °C 2.0 °C 1009.0 hPa WSW 13.0 km/h 21.2 km/h 74% 0.0 mm
18:06 5.5 °C 2.0 °C 1009.0 hPa WSW 13.0 km/h 19.5 km/h 74% 0.0 mm
18:17 5.4 °C 2.0 °C 1008.0 hPa WSW 14.0 km/h 21.2 km/h 75% 0.0 mm
18:29 5.3 °C 2.0 °C 1008.0 hPa West 12.2 km/h 18.3 km/h 75% 0.0 mm
18:39 5.1 °C 1.0 °C 1008.0 hPa Calm   16.9 km/h 76% 0.0 mm
18:46 4.9 °C 1.0 °C 1008.0 hPa WSW 6.4 km/h 13.0 km/h 76% 0.0 mm
18:55 4.7 °C 1.0 °C 1008.0 hPa WSW 12.2 km/h 12.2 km/h 77% 0.0 mm
19:07 5.0 °C 2.0 °C 1008.0 hPa WSW 14.8 km/h 16.6 km/h 77% 0.0 mm
19:17 4.8 °C 1.0 °C 1008.0 hPa WSW 11.6 km/h 15.8 km/h 77% 0.0 mm
19:29 4.3 °C 1.0 °C 1008.0 hPa WSW 4.7 km/h 9.7 km/h 77% 0.0 mm
19:45 3.9 °C 1.0 °C 1009.0 hPa Calm   7.9 km/h 78% 0.0 mm
20:02 3.8 °C 1.0 °C 1009.0 hPa Calm   7.6 km/h 79% 0.0 mm
20:12 3.4 °C 0.0 °C 1009.0 hPa SW 6.4 km/h 8.7 km/h 79% 0.0 mm
20:22 3.3 °C 1.0 °C 1009.0 hPa WSW 6.4 km/h 8.7 km/h 80% 0.0 mm
20:27 3.2 °C 1.0 °C 1009.0 hPa WSW 6.9 km/h 7.9 km/h 81% 0.0 mm
20:36 3.0 °C 0.0 °C 1009.0 hPa Calm   6.9 km/h 81% 0.0 mm
20:41 2.9 °C 1.0 °C 1009.0 hPa Calm   4.0 km/h 82% 0.0 mm
20:46 2.8 °C 1.0 °C 1009.0 hPa Calm   4.0 km/h 82% 0.0 mm
20:51 2.6 °C 0.0 °C 1009.0 hPa Calm   5.8 km/h 82% 0.0 mm
20:56 2.5 °C 0.0 °C 1009.0 hPa Calm   5.8 km/h 82% 0.0 mm
21:01 2.4 °C 0.0 °C 1009.0 hPa Calm   6.4 km/h 83% 0.0 mm
21:06 2.5 °C 0.0 °C 1009.0 hPa Calm   7.6 km/h 83% 0.0 mm
21:12 2.8 °C 1.0 °C 1009.0 hPa WSW 8.7 km/h 9.3 km/h 84% 0.0 mm
21:17 3.0 °C 1.0 °C 1009.0 hPa Calm   10.1 km/h 85% 0.0 mm
21:22 3.2 °C 1.0 °C 1009.0 hPa West 9.0 km/h 10.1 km/h 86% 0.0 mm
21:27 3.4 °C 1.0 °C 1009.0 hPa WSW 6.1 km/h 9.3 km/h 86% 0.0 mm
21:32 3.6 °C 2.0 °C 1009.0 hPa WSW 9.0 km/h 9.0 km/h 86% 0.0 mm
21:38 3.7 °C 2.0 °C 1009.0 hPa WSW 9.0 km/h 12.2 km/h 86% 0.0 mm
21:41 3.9 °C 2.0 °C 1009.0 hPa WSW 11.1 km/h 12.2 km/h 87% 0.0 mm
21:44 3.9 °C 2.0 °C 1009.0 hPa SW 8.7 km/h 13.7 km/h 87% 0.0 mm
21:46 4.1 °C 2.0 °C 1009.0 hPa WSW 9.7 km/h 13.7 km/h 87% 0.0 mm
21:51 4.3 °C 2.0 °C 1009.0 hPa SW 8.7 km/h 13.7 km/h 86% 0.0 mm
21:56 4.3 °C 2.0 °C 1009.0 hPa WSW 7.9 km/h 12.2 km/h 86% 0.0 mm
22:02 4.4 °C 2.0 °C 1009.0 hPa SW 10.8 km/h 13.7 km/h 86% 0.0 mm
22:05 4.6 °C 3.0 °C 1009.0 hPa WSW 14.0 km/h 14.0 km/h 86% 0.0 mm
22:10 4.6 °C 3.0 °C 1009.0 hPa WSW 10.8 km/h 14.0 km/h 86% 0.0 mm
22:11 4.6 °C 3.0 °C 1008.0 hPa WSW 9.3 km/h 14.0 km/h 86% 0.0 mm
22:15 4.8 °C 3.0 °C 1008.0 hPa WSW 10.5 km/h 13.7 km/h 85% 0.0 mm
22:20 5.2 °C 3.0 °C 1008.0 hPa WSW 14.0 km/h 19.5 km/h 85% 0.0 mm
22:21 5.3 °C 3.0 °C 1008.0 hPa West 28.0 km/h 28.0 km/h 85% 0.0 mm
22:22 5.3 °C 3.0 °C 1008.0 hPa West 16.3 km/h 28.0 km/h 85% 0.0 mm
22:24 5.5 °C 4.0 °C 1008.0 hPa WSW 10.8 km/h 28.0 km/h 85% 0.0 mm
22:26 5.5 °C 4.0 °C 1008.0 hPa West 13.0 km/h 28.0 km/h 85% 0.0 mm
22:31 5.5 °C 4.0 °C 1008.0 hPa West 21.2 km/h 21.2 km/h 85% 0.0 mm
22:32 5.5 °C 4.0 °C 1008.0 hPa WSW 20.1 km/h 22.7 km/h 85% 0.0 mm
22:33 5.5 °C 4.0 °C 1008.0 hPa West 15.1 km/h 22.7 km/h 85% 0.0 mm
22:37 6.1 °C 3.0 °C 1008.0 hPa West 12.6 km/h 22.7 km/h 80% 0.0 mm
22:39 6.1 °C 3.0 °C 1008.0 hPa West 16.6 km/h 22.7 km/h 80% 0.0 mm
22:44 6.2 °C 3.0 °C 1008.0 hPa WSW 12.6 km/h 22.7 km/h 78% 0.0 mm
22:48 6.2 °C 3.0 °C 1008.0 hPa West 7.6 km/h 19.8 km/h 78% 0.0 mm
22:49 6.1 °C 3.0 °C 1008.0 hPa West 11.9 km/h 19.8 km/h 78% 0.0 mm
22:53 6.1 °C 3.0 °C 1008.0 hPa WSW 16.9 km/h 19.5 km/h 78% 0.0 mm
22:59 6.2 °C 3.0 °C 1007.0 hPa West 12.6 km/h 17.2 km/h 77% 0.0 mm
23:04 6.1 °C 3.0 °C 1007.0 hPa WSW 8.7 km/h 17.2 km/h 77% 0.0 mm
23:09 6.1 °C 3.0 °C 1007.0 hPa WSW 7.9 km/h 17.2 km/h 77% 0.0 mm
23:14 6.0 °C 3.0 °C 1007.0 hPa WSW 8.7 km/h 15.8 km/h 77% 0.0 mm
23:19 5.8 °C 3.0 °C 1007.0 hPa WSW 11.6 km/h 13.7 km/h 78% 0.0 mm
23:24 5.8 °C 3.0 °C 1007.0 hPa WSW 9.7 km/h 12.2 km/h 78% 0.0 mm
23:29 5.8 °C 3.0 °C 1007.0 hPa WSW 9.7 km/h 12.2 km/h 79% 0.0 mm
23:34 5.8 °C 3.0 °C 1007.0 hPa WSW 12.2 km/h 15.8 km/h 80% 0.0 mm
23:39 5.8 °C 3.0 °C 1007.0 hPa WSW 11.9 km/h 16.9 km/h 80% 0.0 mm
23:44 5.8 °C 3.0 °C 1007.0 hPa SW 10.5 km/h 16.9 km/h 80% 0.0 mm
23:49 6.1 °C 3.0 °C 1007.0 hPa WSW 20.9 km/h 26.2 km/h 80% 0.0 mm
23:54 6.2 °C 3.0 °C 1007.0 hPa WSW 23.0 km/h 26.2 km/h 80% 0.0 mm
23:59 6.2 °C 3.0 °C 1007.0 hPa WSW 16.3 km/h 23.0 km/h 81% 0.0 mm
Données Historique de Météo Turbie

Mise a jour : 20/05/2018 15:56:12
Généré par Cumulus 1.9.4 (1099)